Location: *
(32.8140°S, 174.6161°E)
Time: 21:42:55
(UTC+00:00)

Daily predictions for brighter satellites

Satellite Brightness Start Highest point End
(mag) Time Altitude Azimuth Time Altitude Azimuth Time Altitude Azimuth
ATLAS 5 CENTAUR R/B 3.7 12:17:51 10° SSW 12:20:15 27° SSW 12:20:15 27° SSW
USA 234 3.4 12:34:13 70° SSW 12:34:13 70° SSW 12:40:01 10° SW
Resurs 1-4 Rocket 3.3 12:47:41 38° SE 12:47:41 38° SE 12:51:42 10° S
Cosmos 1605 Rocket 4.4 12:47:01 10° S 12:52:27 60° SE 12:52:27 60° SE
Lacrosse 4 Rocket 3.9 12:57:18 19° SSW 12:57:18 19° SSW 12:59:19 10° S
Cosmos 1980 Rocket 3.9 12:58:50 24° ESE 12:58:50 24° ESE 13:02:04 10° SE
CZ-2D R/B 2.9 13:05:51 49° SSE 13:05:51 49° SSE 13:09:55 10° S
NPP 4.4 13:08:38 51° SSE 13:08:38 51° SSE 13:12:55 10° S
ADEOS II 3.9 13:10:40 22° E 13:11:40 23° ESE 13:15:44 10° SSE
Cosmos 2297 Rocket 2.7 13:17:02 10° SSW 13:21:41 58° S 13:21:41 58° S
Cosmos 1697 Rocket 3.1 13:26:09 59° S 13:26:09 59° S 13:30:45 10° SSE
Cosmos 2227 Rocket 2.6 13:21:28 10° SSW 13:26:17 60° SSE 13:26:17 60° SSE
Atlas Centaur 2 4.1 13:32:21 18° E 13:32:21 18° E 13:33:37 10° E
Cosmos 2219 4.4 13:38:20 10° SSW 13:41:39 32° SW 13:41:39 32° SW
ARIANE 5 R/B 3.1 13:54:12 50° E 13:54:36 51° ESE 13:59:37 10° S
IRS-1C 4.1 14:05:01 76° SSW 14:05:01 76° SSW 14:10:00 10° SSW
ATLAS 2AS CENTAUR R/B 4.2 14:03:24 18° NE 14:04:51 19° ENE 14:09:03 10° ESE
SL-19 R/B 4.4 14:00:23 10° SSE 14:06:34 71° ENE 14:07:07 67° NE
Cosmos 1932 4.2 14:08:29 10° SSW 14:14:40 86° WNW 14:15:31 68° NNE
Cosmos 2082 3.7 14:09:02 10° SSW 14:14:23 69° WSW 14:14:23 69° WSW
Cosmos 1500 Rocket 4.2 14:12:05 10° S 14:16:32 52° E 14:16:32 52° E
CZ-2C R/B 4.4 14:18:43 29° E 14:19:21 31° ESE 14:22:51 10° S
Cosmos 2173 Rocket 3.9 14:13:27 10° SSW 14:19:45 66° W 14:20:12 64° WNW
Cosmos 2061 Rocket 3.9 14:17:16 10° S 14:23:40 87° W 14:24:57 59° N
Cosmos 2100 Rocket 4.1 14:18:11 10° SSW 14:24:17 55° W 14:24:29 54° W
GP-B 4.3 14:20:07 10° SSW 14:23:06 33° SW 14:23:06 33° SW
Resurs 1-4 Rocket 4.1 14:28:46 15° WSW 14:28:46 15° WSW 14:30:22 10° SW
Cosmos 1825 4.2 14:28:23 10° SSW 14:29:56 21° SW 14:29:56 21° SW
Cosmos 1459 Rocket 4.2 14:27:25 10° SSW 14:33:22 50° W 14:33:44 49° WNW
BREEZE-M DEB (TANK) 3.9 14:34:54 24° ENE 14:34:54 24° ENE 14:37:59 10° ESE
Spot 4 Rocket 3.9 14:33:50 73° NNW 14:34:18 81° WNW 14:39:32 10° SSW
Cosmos 2360 Rocket 4.1 14:32:34 14° NE 14:35:32 21° E 14:39:40 10° SE
CZ-4C R/B 4.0 14:32:26 10° S 14:36:24 51° SW 14:36:24 51° SW
SL-4 R/B 2.6 14:37:56 58° NE 14:37:56 58° NE 14:42:30 10° SE
SL-16 R/B 3.1 14:32:55 10° SSE 14:39:05 54° E 14:41:58 31° NNE
deb Chang Zheng 4 3.8 14:40:43 60° WSW 14:40:43 60° WSW 14:44:36 10° SSW
Cosmos 1980 Rocket 3.1 14:40:36 32° WSW 14:41:13 33° WSW 14:46:17 10° S
Cosmos 1680 Rocket 4.4 14:41:05 33° WSW 14:41:17 34° WSW 14:46:05 10° S
Cosmos 1869 3.4 14:42:15 78° SSE 14:42:15 78° SSE 14:46:06 10° S
Cosmos 1238 Rocket 4.1 14:35:32 10° S 14:42:17 75° E 14:45:27 31° NNE
CZ-2D R/B 4.4 14:47:10 10° WSW 14:47:10 10° WSW 14:47:17 10° WSW
Cosmos 2221 3.5 14:48:12 34° WSW 14:48:12 34° WSW 14:51:30 10° SSW
Cosmos 1864 Rocket 4.4 14:41:31 10° S 14:47:41 73° W 14:49:38 45° NNW
Centaur AC-119 4.0 14:48:47 26° NE 14:48:47 26° NE 14:54:19 10° E
Cosmos 2263 Rocket 3.6 14:43:30 10° S 14:48:48 38° ESE 14:54:01 10° NE
Cosmos 1447 Rocket 4.5 14:46:34 38° N 14:49:07 78° E 14:55:19 10° S
Shenzhou-11 Module 4.2 14:51:07 23° SSE 14:51:07 23° SSE 14:52:34 10° SE
ERS-2 2.7 14:46:51 10° S 14:49:55 50° SW 14:49:55 50° SW
ADEOS II 2.8 14:51:36 35° W 14:51:36 35° W 14:55:57 10° SSW
USA 215 4.3 14:47:08 10° ESE 14:53:03 34° NE 14:56:09 23° N
Meteor 2-2 Rocket 4.4 14:54:11 46° NW 14:55:49 64° W 15:01:53 10° S
Cosmos 2322 Rocket 2.2 14:59:31 42° NNW 15:01:34 84° ENE 15:07:20 10° SSE
Cosmos 1633 3.5 15:01:26 10° S 15:05:00 46° E 15:06:39 26° NE
Cosmos 1356 Rocket 4.2 15:05:21 34° WSW 15:05:21 34° WSW 15:08:46 10° SSW
UNK 3.6 15:01:46 10° S 15:06:24 76° WSW 15:07:37 49° NNW
COSMOS 2455 2.9 15:05:02 40° NW 15:07:10 66° WSW 15:13:11 10° SSE
Cosmos 2227 4.3 15:01:33 10° SSW 15:07:17 77° ESE 15:12:58 10° NNE
SL-16 R/B 2.2 15:07:39 41° NW 15:09:40 70° WSW 15:15:22 10° SSE
MOZ.5/SAFIR/RUBIN 5/SL-8 4.1 15:10:06 10° S 15:14:44 53° WSW 15:16:03 40° WNW
Sich 1 3.1 15:10:54 10° S 15:15:15 74° E 15:17:50 23° NNE
DELTA 2 R/B (1) 3.5 15:10:31 10° WSW 15:16:11 87° SSE 15:21:47 10° ENE
Atlas Centaur 2 1.8 15:14:56 34° WNW 15:17:19 68° N 15:21:56 10° E
NOSS 3-4 (A) 4.4 15:12:43 22° N 15:18:14 62° ENE 15:26:05 10° SE
NOSS 3-4 (C) 4.4 15:12:48 22° N 15:18:20 61° ENE 15:26:12 10° SE
H-2A R/B 2.8 15:14:10 10° SSE 15:18:39 53° E 15:21:30 21° N
Cosmos 1624 Rocket 3.9 15:14:23 10° SSW 15:19:38 71° WNW 15:23:41 17° N
Meteor 2-20 Rocket 4.4 15:18:49 25° N 15:22:36 84° W 15:28:46 10° S
IDEFIX/ARIANE 42P 2.5 15:20:49 16° N 15:25:04 79° WNW 15:30:25 10° SSW
Cosmos 2056 Rocket 3.4 15:20:15 10° SSW 15:25:31 64° WNW 15:29:32 17° N
GOES 2 Rocket 3.3 15:26:00 38° NW 15:27:13 50° N 15:32:03 10° ENE
ARIANE 5 R/B 4.3 15:34:32 15° W 15:34:32 15° W 15:36:49 10° WSW
CZ-4B R/B 4.5 15:33:51 10° E 15:34:15 10° E 15:34:40 10° ENE
Cosmos 1805 Rocket 4.0 15:30:09 10° SSW 15:34:19 42° W 15:35:48 31° NW
Intercosmos 25 Rocket 3.4 15:35:36 25° N 15:37:40 86° E 15:42:42 10° S
Cosmos 2237 4.3 15:33:44 20° NNW 15:37:47 77° ENE 15:43:31 10° SSE
Cosmos 1420 Rocket 4.1 15:38:15 10° SSW 15:43:39 82° ESE 15:48:55 10° NNE
Cosmos 1328 Rocket 3.5 15:41:16 21° NNW 15:44:08 73° W 15:48:38 10° S
Cosmos 1633 Rocket 3.0 15:40:24 10° S 15:44:50 86° W 15:49:12 10° N
Cosmos 44 3.4 15:41:01 10° SSW 15:46:23 72° WNW 15:51:34 10° NNE
CZ-4C R/B 3.3 15:44:47 10° SSE 15:48:30 73° E 15:51:27 15° N
COSMOS 2428 4.4 15:44:02 10° NNE 15:48:54 29° ENE 15:53:49 10° SE
Cosmos 1072 Rocket 4.5 15:43:27 10° S 15:49:46 90° E 15:55:55 10° N
OAO 2 Rocket 3.6 15:46:42 23° NW 15:50:00 62° NNE 15:55:13 10° E
COSMOS 2441 4.3 15:47:24 10° N 15:52:15 76° WNW 15:57:12 10° SSW
SAR-Lupe-1 4.0 15:48:52 10° S 15:52:31 84° WSW 15:55:12 17° NNW
ATLAS 2AS CENTAUR R/B 2.7 15:50:51 20° NW 15:55:10 55° WSW 16:01:11 10° SSE
NOSS 3-2 (A) 3.6 15:55:10 10° SSW 16:01:20 70° ESE 16:06:53 10° NE
Meteor 1-28 Rocket 4.5 15:59:47 10° SSE 16:03:23 40° E 16:06:54 10° N
Elektron 1 4.2 16:00:55 10° SW 16:04:50 45° WNW 16:07:40 10° NNE
Cosmos 1151 Rocket 3.6 16:03:18 16° NW 16:06:18 40° W 16:10:24 10° S
SJ-6F 4.4 16:03:48 10° N 16:08:00 82° WNW 16:12:16 10° SSW
Lacrosse 5 rocket 1.2 16:05:28 16° NNW 16:08:23 82° NE 16:12:25 10° SE
ADEOS 4.2 16:04:28 10° NNW 16:09:13 35° W 16:14:01 10° SSW
Cosmos 1606 2.7 16:05:19 10° N 16:09:14 79° W 16:13:11 10° S
Cosmos 1269 Rocket 4.3 16:04:10 10° N 16:09:25 71° ENE 16:14:43 10° SSE
USA 238 DEB 3.7 16:02:36 10° SSW 16:09:31 88° WNW 16:16:11 10° NNE
USA 238 3.7 16:02:44 10° SSW 16:09:38 88° WNW 16:16:17 10° NNE
Cosmos 2322 3.7 16:04:24 10° NNW 16:10:04 88° ENE 16:15:49 10° SSE
Cosmos 1452 Rocket 3.5 16:06:35 10° SSW 16:11:53 70° WNW 16:17:06 10° N
CZ-4B R/B 3.8 16:10:31 10° NNE 16:14:13 77° ESE 16:17:56 10° S
Cosmos 1515 Rocket 3.8 16:09:52 10° NNW 16:14:15 54° W 16:18:42 10° S
Cosmos 2228 Rocket 3.1 16:10:52 10° N 16:15:19 89° WSW 16:19:48 10° S
SL-4 R/B 4.0 16:14:00 10° W 16:17:52 24° SSW 16:21:35 10° SSE
SL-08 R/B 3.9 16:13:26 10° S 16:17:53 42° WSW 16:22:22 10° NW
Cosmos 2360 Rocket 2.8 16:14:22 13° NW 16:19:08 42° WSW 16:24:30 10° S
H-2A R/B 4.0 16:13:32 10° W 16:19:29 83° N 17:00:50 10° ENE
Cosmos 1933 Rocket 3.6 16:16:02 10° S 16:20:31 90° E 16:24:52 10° N
Meteor 2-11 Rocket 4.4 16:14:40 10° S 16:20:47 73° W 16:26:50 10° N
SL-16 R/B 4.0 16:17:38 10° SSW 16:22:11 21° WSW 16:26:41 10° WNW
CZ-2C R/B 2.5 16:18:11 10° N 16:22:49 54° W 16:27:40 10° SSW
CZ-4B R/B 3.2 16:19:55 10° NNE 16:24:26 86° WNW 16:29:02 10° SSW
CENTAUR R/B 3.5 16:20:27 10° SSW 16:25:52 44° SE 16:30:54 10° NE
Cosmos 1782 3.5 16:22:57 10° N 16:26:53 59° E 16:30:54 10° SSE
ASTEX 1 3.5 16:24:20 10° S 16:29:18 64° W 16:34:15 10° NNW
Cosmos 2263 Rocket 3.3 16:27:57 10° SW 16:32:26 24° W 16:36:51 10° NNW
USA 215 3.7 16:29:41 10° SSE 16:36:06 55° SW 16:42:28 10° WNW
Cosmos 1315 Rocket 3.4 16:32:07 10° N 16:36:10 63° E 16:40:14 10° SSE
ALOS 3.8 16:31:55 10° NE 16:36:21 43° ESE 16:40:49 10° S
OAO 3 Rocket 3.3 16:31:59 10° WNW 16:36:58 77° NNE 16:41:54 10° ESE
Cosmos 2333 Rocket 2.3 16:34:29 10° NNW 16:40:11 88° WSW 16:45:55 10° SSE
Cosmos 2237 Rocket 4.0 16:37:16 10° NNE 16:42:07 30° ENE 16:47:00 10° SE
Cosmos 2034 Rocket 4.2 16:36:14 10° SSW 16:42:13 50° W 16:48:12 10° NNW
BREEZE-M DEB (TANK) 3.8 16:41:02 10° SW 16:55:30 65° NW 16:59:31 10° NNE
